Time,TemperatureF,DewpointF,PressureIn,WindDirection,WindDirectionDegrees,WindSpeedMPH,WindSpeedGustMPH,Humidity,HourlyPrecipIn,Conditions,Clouds,dailyrainin,SoftwareType,DateUTC
2013-06-26 00:02:00,75.0,75.0,29.85,North,0,0.0,-999.0,100,-99.99,,,-99.99,,2013-06-26 05:02:00,
2013-06-26 00:11:00,75.0,75.0,29.84,North,0,0.0,-999.0,100,-99.99,,,-99.99,,2013-06-26 05:11:00,
2013-06-26 00:22:00,75.0,75.0,29.85,North,0,0.0,-999.0,100,-99.99,,,-99.99,,2013-06-26 05:22:00,
2013-06-26 00:34:00,75.0,75.0,29.85,North,0,0.0,-999.0,100,-99.99,,,-99.99,,2013-06-26 05:34:00,
2013-06-26 00:43:00,75.0,75.0,29.84,North,0,0.0,-999.0,100,-99.99,,,-99.99,,2013-06-26 05:43:00,
2013-06-26 00:52:00,75.0,75.0,29.84,North,0,0.0,-999.0,100,-99.99,,,-99.99,,2013-06-26 05:52:00,
2013-06-26 01:01:00,75.0,75.0,29.84,North,0,0.0,-999.0,100,-99.99,,,-99.99,,2013-06-26 06:01:00,
2013-06-26 01:11:00,75.0,75.0,29.84,North,0,0.0,-999.0,100,-99.99,,,-99.99,,2013-06-26 06:11:00,
2013-06-26 01:22:00,75.0,75.0,29.84,North,0,0.0,-999.0,100,-99.99,,,-99.99,,2013-06-26 06:22:00,
2013-06-26 01:34:00,75.0,75.0,29.84,North,0,0.0,-999.0,100,-99.99,,,-99.99,,2013-06-26 06:34:00,
2013-06-26 01:43:00,75.0,75.0,29.84,North,0,0.0,-999.0,100,-99.99,,,-99.99,,2013-06-26 06:43:00,
2013-06-26 01:53:00,75.0,75.0,29.84,North,0,0.0,-999.0,100,-99.99,,,-99.99,,2013-06-26 06:53:00,
2013-06-26 02:01:00,75.0,75.0,29.84,North,0,0.0,-999.0,100,-99.99,,,-99.99,,2013-06-26 07:01:00,
2013-06-26 02:11:00,73.0,73.0,29.84,North,0,0.0,-999.0,100,-99.99,,,-99.99,,2013-06-26 07:11:00,
2013-06-26 02:22:00,73.0,73.0,29.84,North,0,0.0,-999.0,100,-99.99,,,-99.99,,2013-06-26 07:22:00,
2013-06-26 02:33:00,73.0,73.0,29.83,North,0,0.0,-999.0,100,-99.99,,,-99.99,,2013-06-26 07:33:00,
2013-06-26 02:43:00,75.0,75.0,29.83,SSW,205,3.0,-999.0,100,-99.99,,,-99.99,,2013-06-26 07:43:00,
2013-06-26 02:53:00,75.0,75.0,29.83,WNW,295,3.0,-999.0,100,-99.99,,,-99.99,,2013-06-26 07:53:00,
2013-06-26 03:01:00,75.0,75.0,29.83,North,0,0.0,-999.0,100,-99.99,,,-99.99,,2013-06-26 08:01:00,
2013-06-26 03:11:00,75.0,75.0,29.83,North,0,0.0,-999.0,100,-99.99,,,-99.99,,2013-06-26 08:11:00,
2013-06-26 03:22:00,75.0,75.0,29.83,North,0,0.0,-999.0,100,-99.99,,,-99.99,,2013-06-26 08:22:00,
2013-06-26 03:33:00,75.0,75.0,29.83,North,0,0.0,-999.0,100,-99.99,,,-99.99,,2013-06-26 08:33:00,
2013-06-26 03:42:00,75.0,75.0,29.83,North,0,0.0,-999.0,100,-99.99,,,-99.99,,2013-06-26 08:42:00,
2013-06-26 03:52:00,75.0,75.0,29.83,North,0,0.0,-999.0,100,-99.99,,,-99.99,,2013-06-26 08:52:00,
2013-06-26 04:01:00,75.0,75.0,29.83,North,0,0.0,-999.0,100,-99.99,,,-99.99,,2013-06-26 09:01:00,
2013-06-26 04:11:00,75.0,75.0,29.83,North,0,0.0,-999.0,100,-99.99,,,-99.99,,2013-06-26 09:11:00,
2013-06-26 04:22:00,73.0,73.0,29.83,North,0,0.0,-999.0,100,-99.99,,,-99.99,,2013-06-26 09:22:00,
2013-06-26 04:32:00,73.0,73.0,29.83,North,0,0.0,-999.0,100,-99.99,,,-99.99,,2013-06-26 09:32:00,
2013-06-26 04:43:00,73.0,73.0,29.83,North,0,0.0,-999.0,100,-99.99,,,-99.99,,2013-06-26 09:43:00,
2013-06-26 04:53:00,73.0,73.0,29.84,North,0,0.0,-999.0,100,-99.99,,,-99.99,,2013-06-26 09:53:00,
2013-06-26 05:01:00,73.0,73.0,29.83,West,269,5.0,-999.0,100,-99.99,,,-99.99,,2013-06-26 10:01:00,
2013-06-26 05:12:00,73.0,73.0,29.83,North,0,0.0,-999.0,100,-99.99,,,-99.99,,2013-06-26 10:12:00,
2013-06-26 05:22:00,73.0,72.0,29.84,North,0,0.0,-999.0,94,-99.99,,,-99.99,,2013-06-26 10:22:00,
2013-06-26 05:34:00,73.0,72.0,29.85,North,0,0.0,-999.0,94,-99.99,,,-99.99,,2013-06-26 10:34:00,
2013-06-26 05:43:00,73.0,72.0,29.85,North,0,0.0,-999.0,94,-99.99,,,-99.99,,2013-06-26 10:43:00,
2013-06-26 05:53:00,72.0,72.0,29.86,North,0,0.0,-999.0,100,-99.99,,,-99.99,,2013-06-26 10:53:00,
2013-06-26 06:02:00,72.0,72.0,29.86,North,0,0.0,-999.0,100,-99.99,,,-99.99,,2013-06-26 11:02:00,
2013-06-26 06:11:00,72.0,72.0,29.87,WNW,294,5.0,-999.0,100,-99.99,,,-99.99,,2013-06-26 11:11:00,
2013-06-26 06:22:00,72.0,72.0,29.87,North,0,0.0,-999.0,100,-99.99,,,-99.99,,2013-06-26 11:22:00,
2013-06-26 06:32:00,72.0,72.0,29.88,NW,315,3.0,-999.0,100,-99.99,,,-99.99,,2013-06-26 11:32:00,
2013-06-26 06:44:00,72.0,72.0,29.88,North,0,0.0,-999.0,100,-99.99,,,-99.99,,2013-06-26 11:44:00,
2013-06-26 06:52:00,72.0,72.0,29.88,NW,315,3.0,-999.0,100,-99.99,,,-99.99,,2013-06-26 11:52:00,
2013-06-26 07:02:00,72.0,72.0,29.89,North,0,0.0,-999.0,100,-99.99,,,-99.99,,2013-06-26 12:02:00,
2013-06-26 07:12:00,72.0,72.0,29.90,North,0,3.0,-999.0,100,-99.99,,,-99.99,,2013-06-26 12:12:00,
2013-06-26 07:22:00,72.0,72.0,29.90,North,0,0.0,-999.0,100,-99.99,,,-99.99,,2013-06-26 12:22:00,
2013-06-26 07:33:00,72.0,72.0,29.91,NNW,334,8.0,-999.0,100,-99.99,,,-99.99,,2013-06-26 12:33:00,
2013-06-26 07:42:00,72.0,72.0,29.91,NNW,334,2.0,-999.0,100,-99.99,,,-99.99,,2013-06-26 12:42:00,
2013-06-26 07:52:00,73.0,72.0,29.92,North,0,0.0,-999.0,94,-99.99,,,-99.99,,2013-06-26 12:52:00,
2013-06-26 08:02:00,73.0,72.0,29.92,North,0,0.0,-999.0,94,-99.99,,,-99.99,,2013-06-26 13:02:00,
2013-06-26 08:11:00,73.0,72.0,29.92,North,0,0.0,-999.0,94,-99.99,,,-99.99,,2013-06-26 13:11:00,
2013-06-26 08:22:00,73.0,72.0,29.92,North,0,0.0,-999.0,94,-99.99,,,-99.99,,2013-06-26 13:22:00,
2013-06-26 08:34:00,73.0,73.0,29.92,North,0,0.0,-999.0,100,-99.99,,,-99.99,,2013-06-26 13:34:00,
2013-06-26 08:42:00,73.0,73.0,29.93,North,0,0.0,-999.0,100,-99.99,,,-99.99,,2013-06-26 13:42:00,
2013-06-26 08:53:00,75.0,73.0,29.93,North,0,0.0,-999.0,94,-99.99,,,-99.99,,2013-06-26 13:53:00,
2013-06-26 09:23:00,75.0,73.0,29.93,North,0,0.0,-999.0,94,-99.99,,,-99.99,,2013-06-26 14:23:00,
2013-06-26 09:34:00,77.0,73.0,29.94,North,0,0.0,-999.0,88,-99.99,,,-99.99,,2013-06-26 14:34:00,
2013-06-26 09:42:00,77.0,73.0,29.95,NNW,335,6.0,-999.0,88,-99.99,,,-99.99,,2013-06-26 14:42:00,
2013-06-26 09:53:00,77.0,73.0,29.95,NNE,25,3.0,-999.0,88,-99.99,,,-99.99,,2013-06-26 14:53:00,
2013-06-26 10:02:00,79.0,73.0,29.95,North,0,0.0,-999.0,83,-99.99,,,-99.99,,2013-06-26 15:02:00,
2013-06-26 10:11:00,79.0,73.0,29.96,North,0,0.0,-999.0,83,-99.99,,,-99.99,,2013-06-26 15:11:00,
2013-06-26 10:34:00,79.0,72.0,29.96,North,0,0.0,-999.0,78,-99.99,,,-99.99,,2013-06-26 15:34:00,
2013-06-26 10:44:00,81.0,72.0,29.96,North,0,0.0,-999.0,74,-99.99,,,-99.99,,2013-06-26 15:44:00,
2013-06-26 10:53:00,81.0,70.0,29.96,North,0,5.0,-999.0,69,-99.99,,,-99.99,,2013-06-26 15:53:00,
2013-06-26 11:01:00,81.0,72.0,29.97,North,0,0.0,-999.0,74,-99.99,,,-99.99,,2013-06-26 16:01:00,
2013-06-26 11:11:00,81.0,70.0,29.97,North,0,0.0,-999.0,69,-99.99,,,-99.99,,2013-06-26 16:11:00,
2013-06-26 11:34:00,81.0,70.0,29.97,North,0,3.0,-999.0,69,-99.99,,,-99.99,,2013-06-26 16:34:00,
2013-06-26 11:43:00,81.0,70.0,29.98,North,0,0.0,-999.0,69,-99.99,,,-99.99,,2013-06-26 16:43:00,
2013-06-26 11:52:00,82.0,70.0,29.99,NNE,24,5.0,-999.0,65,-99.99,,,-99.99,,2013-06-26 16:52:00,
2013-06-26 12:01:00,82.0,70.0,29.99,North,0,0.0,-999.0,65,-99.99,,,-99.99,,2013-06-26 17:01:00,
2013-06-26 12:11:00,82.0,70.0,29.99,NNE,25,7.0,-999.0,65,-99.99,,,-99.99,,2013-06-26 17:11:00,
2013-06-26 12:23:00,82.0,70.0,29.99,North,0,0.0,-999.0,65,-99.99,,,-99.99,,2013-06-26 17:23:00,
2013-06-26 12:33:00,82.0,68.0,30.00,West,269,3.0,-999.0,61,-99.99,,,-99.99,,2013-06-26 17:33:00,
2013-06-26 12:43:00,82.0,68.0,30.00,WNW,295,8.0,-999.0,61,-99.99,,,-99.99,,2013-06-26 17:43:00,
2013-06-26 12:52:00,82.0,66.0,30.00,North,0,0.0,-999.0,58,-99.99,,,-99.99,,2013-06-26 17:52:00,
2013-06-26 13:01:00,82.0,66.0,30.01,North,0,0.0,-999.0,58,-99.99,,,-99.99,,2013-06-26 18:01:00,
2013-06-26 13:11:00,84.0,66.0,30.01,West,269,10.0,-999.0,54,-99.99,,,-99.99,,2013-06-26 18:11:00,
2013-06-26 13:22:00,84.0,64.0,30.01,NNW,334,12.0,-999.0,51,-99.99,,,-99.99,,2013-06-26 18:22:00,
2013-06-26 13:34:00,84.0,66.0,30.01,NW,315,5.0,-999.0,54,-99.99,,,-99.99,,2013-06-26 18:34:00,
2013-06-26 13:43:00,84.0,66.0,30.01,North,0,5.0,-999.0,54,-99.99,,,-99.99,,2013-06-26 18:43:00,
2013-06-26 13:52:00,84.0,66.0,30.01,WNW,294,5.0,-999.0,54,-99.99,,,-99.99,,2013-06-26 18:52:00,
2013-06-26 14:01:00,84.0,66.0,30.01,North,0,0.0,-999.0,54,-99.99,,,-99.99,,2013-06-26 19:01:00,
2013-06-26 21:11:00,82.0,63.0,30.00,North,0,0.0,-999.0,51,-99.99,,,-99.99,,2013-06-27 02:11:00,
2013-06-26 21:22:00,82.0,63.0,30.00,North,0,0.0,-999.0,51,-99.99,,,-99.99,,2013-06-27 02:22:00,
2013-06-26 21:32:00,82.0,63.0,30.00,North,0,0.0,-999.0,51,-99.99,,,-99.99,,2013-06-27 02:32:00,
2013-06-26 21:42:00,82.0,63.0,30.01,North,0,0.0,-999.0,51,-99.99,,,-99.99,,2013-06-27 02:42:00,
2013-06-26 21:52:00,81.0,63.0,30.01,North,0,0.0,-999.0,54,-99.99,,,-99.99,,2013-06-27 02:52:00,
2013-06-26 22:02:00,81.0,63.0,30.02,North,0,0.0,-999.0,54,-99.99,,,-99.99,,2013-06-27 03:02:00,
2013-06-26 22:11:00,81.0,63.0,30.02,North,0,0.0,-999.0,54,-99.99,,,-99.99,,2013-06-27 03:11:00,
2013-06-26 22:21:00,81.0,61.0,30.02,North,0,0.0,-999.0,50,-99.99,,,-99.99,,2013-06-27 03:21:00,
2013-06-26 22:32:00,81.0,61.0,30.03,North,0,0.0,-999.0,50,-99.99,,,-99.99,,2013-06-27 03:32:00,
2013-06-26 22:42:00,81.0,63.0,30.03,North,0,0.0,-999.0,54,-99.99,,,-99.99,,2013-06-27 03:42:00,
2013-06-26 22:52:00,81.0,61.0,30.02,North,0,0.0,-999.0,50,-99.99,,,-99.99,,2013-06-27 03:52:00,
2013-06-26 23:01:00,81.0,63.0,30.03,North,0,0.0,-999.0,54,-99.99,,,-99.99,,2013-06-27 04:01:00,
2013-06-26 23:11:00,79.0,63.0,30.03,North,0,0.0,-999.0,57,-99.99,,,-99.99,,2013-06-27 04:11:00,
2013-06-26 23:22:00,79.0,63.0,30.03,North,0,0.0,-999.0,57,-99.99,,,-99.99,,2013-06-27 04:22:00,
2013-06-26 23:32:00,79.0,63.0,30.03,North,0,0.0,-999.0,57,-99.99,,,-99.99,,2013-06-27 04:32:00,
2013-06-26 23:42:00,79.0,63.0,30.03,North,0,0.0,-999.0,57,-99.99,,,-99.99,,2013-06-27 04:42:00,
2013-06-26 23:52:00,79.0,63.0,30.03,North,0,0.0,-999.0,57,-99.99,,,-99.99,,2013-06-27 04:52:00,